Flag for Brazil Weather past 2 weeks in Campinas, São Paulo, Brazil

Now
68 °F

Clear.


Feels Like: 68 °F
Forecast: 63 / 76 °F
Wind: 8 mph from East

Location: Campinas Aeroporto

Current Time: Jul 24, 2014 at 12:13:48 AM

Latest Report: Jul 24, 2014 at 12:00 AM


Visibility: 10 mi

Pressure: 30.04 "Hg

Humidity: 46%

Dew point: 46 °F

Location of CampinasLocation

Historic Weather in Campinas — Graph

°F

Campinas temperature yesterday

Maximum temperature yesterday: 81 °F (at 2:00 PM)
Minimum temperature yesterday: 55 °F (at 7:00 AM)
Average temperature yesterday: 71 °F

Past Weeks' High & Low Weather Summary

 TemperatureHumidityPressure
High81 °F (Jul 17, 2:00 PM)100% (Jul 10, 4:00 AM)30.36 "Hg (Jul 10, 4:00 AM)
Low50 °F (Jul 20, 7:00 AM)24% (Jul 21, 4:00 PM)30.04 "Hg (Jul 23, 3:00 PM)
Average64 °F67%30.21 "Hg
* Reported Jul 8 11:00 PM — Jul 23 11:00 PM, Campinas, Weather by CustomWeather, © 2014

Note: Actual official high and low records may vary slightly from our data, if they occured in-between our weather recording intervals... More about our weather records

Advertising

Campinas weather history for previous 24 hours

 ConditionsComfort  
Time TempWeatherWind HumidityBarometerVisibility
11:00 PM
Jul 23
70 °FClear.9 mph40%30.04 "Hg10 mi
10:00 PM70 °FClear.10 mph40%30.04 "Hg10 mi
9:00 PM72 °FClear.8 mph38%30.04 "Hg10 mi
8:00 PM72 °FClear.6 mph38%30.04 "Hg10 mi
7:00 PM73 °FClear.7 mph33%30.04 "Hg10 mi
6:00 PM75 °FClear.6 mph29%30.04 "Hg10 mi
5:00 PM81 °FClear.9 mph24%30.04 "Hg10 mi
4:00 PM81 °FSunny.13 mph24%30.04 "Hg10 mi
3:00 PM81 °FSunny.12 mph24%30.04 "Hg10 mi
2:00 PM81 °FSunny.14 mph24%30.07 "Hg10 mi
1:00 PM79 °FSunny.14 mph26%30.09 "Hg10 mi
12:00 PM79 °FSunny.13 mph28%30.15 "Hg10 mi
11:00 AM75 °FSunny.13 mph31%30.15 "Hg10 mi
10:00 AM72 °FSunny.10 mph38%30.18 "Hg10 mi
9:00 AM66 °FSunny.6 mph49%30.18 "Hg10 mi
8:00 AM59 °FSunny.7 mph68%30.15 "Hg10 mi
7:00 AM55 °FSunny.7 mph77%30.18 "Hg10 mi
6:00 AM57 °FSunny.5 mph67%30.18 "Hg10 mi
2:00 AM64 °FClear.5 mph52%30.15 "Hg10 mi
1:00 AM64 °FClear.7 mph56%30.15 "Hg10 mi
12:00 AM66 °FClear.8 mph52%30.15 "Hg10 mi
Weather by CustomWeather, © 2014

See weather overviewHow to use our weather pages